TimeCST,TemperatureF,Dew PointF,Humidity,Sea Level PressureIn,VisibilityMPH,Wind Direction,Wind SpeedMPH,Gust SpeedMPH,PrecipitationIn,Events,Conditions,WindDirDegrees,DateUTC
12:53 AM,24.1,14.0,65,30.25,10.0,SSW,11.5,-,N/A,,Clear,200,2014-01-08 06:53:00
1:53 AM,25.0,14.0,63,30.26,10.0,SSW,11.5,-,N/A,,Clear,210,2014-01-08 07:53:00
2:53 AM,25.0,14.0,63,30.28,10.0,SSW,9.2,-,N/A,,Clear,210,2014-01-08 08:53:00
3:53 AM,21.9,12.9,68,30.28,10.0,SSW,8.1,-,N/A,,Clear,210,2014-01-08 09:53:00
4:53 AM,24.1,15.1,69,30.29,10.0,SSW,8.1,-,N/A,,Clear,210,2014-01-08 10:53:00
5:53 AM,25.0,16.0,69,30.29,10.0,South,5.8,-,N/A,,Scattered Clouds,170,2014-01-08 11:53:00
6:53 AM,25.0,16.0,69,30.30,10.0,SSW,6.9,-,N/A,,Scattered Clouds,200,2014-01-08 12:53:00
7:53 AM,24.1,15.1,69,30.32,10.0,SSE,5.8,-,N/A,,Clear,150,2014-01-08 13:53:00
8:53 AM,25.0,16.0,69,30.34,10.0,SE,5.8,-,N/A,,Partly Cloudy,140,2014-01-08 14:53:00
9:53 AM,26.1,17.1,69,30.36,10.0,SSE,5.8,-,N/A,,Partly Cloudy,160,2014-01-08 15:53:00
10:53 AM,30.0,18.0,61,30.36,10.0,South,8.1,-,N/A,,Clear,190,2014-01-08 16:53:00
11:53 AM,30.9,18.0,59,30.34,10.0,South,6.9,-,N/A,,Partly Cloudy,190,2014-01-08 17:53:00
12:53 PM,34.0,16.0,48,30.30,10.0,Calm,Calm,-,N/A,,Clear,0,2014-01-08 18:53:00
1:53 PM,37.0,17.1,44,30.30,10.0,Calm,Calm,-,N/A,,Mostly Cloudy,0,2014-01-08 19:53:00
2:53 PM,36.0,19.0,50,30.30,10.0,NE,5.8,-,N/A,,Overcast,40,2014-01-08 20:53:00
3:53 PM,35.1,19.0,52,30.32,10.0,East,3.5,-,N/A,,Overcast,80,2014-01-08 21:53:00
4:53 PM,34.0,19.0,54,30.33,10.0,ENE,5.8,-,N/A,,Overcast,60,2014-01-08 22:53:00
5:53 PM,32.0,19.9,61,30.34,10.0,NE,9.2,-,N/A,,Overcast,50,2014-01-08 23:53:00
6:53 PM,28.9,19.0,67,30.36,10.0,ENE,10.4,-,N/A,,Overcast,70,2014-01-09 00:53:00
7:53 PM,28.0,18.0,66,30.38,10.0,ENE,8.1,-,N/A,,Overcast,70,2014-01-09 01:53:00
8:53 PM,26.1,18.0,71,30.38,10.0,East,10.4,-,N/A,,Overcast,80,2014-01-09 02:53:00
9:42 PM,26.1,18.0,71,30.34,10.0,East,10.4,-,N/A,,Overcast,80,2014-01-09 03:42:00
9:53 PM,25.0,18.0,75,30.38,10.0,East,11.5,-,N/A,,Overcast,90,2014-01-09 03:53:00
10:53 PM,24.1,18.0,77,30.37,10.0,East,11.5,-,N/A,,Overcast,90,2014-01-09 04:53:00
11:39 PM,23.0,19.0,85,30.32,2.0,East,9.2,-,0.00,Snow,Light Snow,90,2014-01-09 05:39:00
11:53 PM,23.0,19.9,88,30.36,1.8,East,11.5,-,0.00,Snow,Light Snow,90,2014-01-09 05:53:00